Location: Newark
(10.7761°N, 106.6983°E)
Time: 13:12:53
(UTC+00:00)

Envisat - Visible Passes

Search period start: 18 July 2019 00:00
Search period end: 28 July 2019 00:00
Orbit: 764 x 766 km, 98.1° (Epoch: 18 July)

Date Brightness Start Highest point End Pass type
(mag) Time Alt. Az. Time Alt. Az. Time Alt. Az.
18 Jul 4.7 12:10:09 10° SSW 12:14:39 32° W 12:19:09 10° NW visible
19 Jul 3.1 11:32:52 10° SSE 11:37:57 88° ENE 11:43:02 10° N visible
20 Jul 5.7 12:37:09 10° SW 12:40:09 16° W 12:43:09 10° WNW visible
21 Jul 4.2 11:58:37 10° S 12:03:25 44° W 12:08:14 10° NNW visible
23 Jul 5.4 12:25:07 10° SSW 12:28:54 21° W 12:32:43 10° NW visible
24 Jul 3.6 11:47:12 10° S 11:52:11 60° WSW 11:57:11 10° NNW visible
26 Jul 5.0 12:13:20 10° SSW 12:17:40 29° W 12:22:01 10° NW visible
27 Jul 3.1 11:35:54 10° S 11:40:58 82° W 11:46:02 10° NNW visible
